Location: Spring Creek
(38.2870°N, 100.2160°W)
Time: 00:19:14
(UTC+00:00)

Cosmos 2297 Rocket - Pass Details

Date: 30 September 2021
Orbit: 841 x 842 km, 71.0° (Epoch: 24 October)

Event Time Altitude Azimuth Distance (km) Brightness Sun altitude
Rises 04:22:12 0° 330° (NNW) 3,402 6.1 -44.0°
Reaches altitude 10° 04:24:45 10° 324° (NW) 2,463 5.2 -44.4°
Enters shadow 04:25:37 14° 320° (NW) 2,159 4.8 -44.5°
